| time (UTC) | temp F | wind direction | speed MPH | gust MPH | rain 1hr in | rain 24hr in | rain mn in | humidity % | barometer mb |
| 20260508091058 | 71 | 0 | 0.0 | 2.0 | 0.00 | 0.00 | 0.00 | 23 | 1011.5 |
| 20260508090559 | 71 | 296 | 1.0 | 2.0 | 0.00 | 0.00 | 0.00 | 23 | 1011.4 |
| 20260508090113 | 71 | 293 | 0.0 | 3.0 | 0.00 | 0.00 | 0.00 | 23 | 1011.5 |
| 20260508085558 | 71 | 0 | 1.0 | 3.0 | 0.00 | 0.00 | 0.00 | 22 | 1011.4 |
| 20260508085058 | 71 | 319 | 1.0 | 4.0 | 0.00 | 0.00 | 0.00 | 23 | 1011.6 |
| 20260508084600 | 71 | 351 | 0.0 | 4.0 | 0.00 | 0.00 | 0.00 | 22 | 1011.6 |
| 20260508084102 | 72 | 330 | 2.0 | 4.0 | 0.00 | 0.00 | 0.00 | 21 | 1011.5 |
| 20260508083559 | 72 | 331 | 2.0 | 4.0 | 0.00 | 0.00 | 0.00 | 21 | 1011.4 |
| 20260508083105 | 73 | 330 | 2.0 | 4.0 | 0.00 | 0.00 | 0.00 | 21 | 1011.5 |
| 20260508082558 | 73 | 326 | 3.0 | 4.0 | 0.00 | 0.00 | 0.00 | 21 | 1011.4 |
| 20260508082100 | 73 | 335 | 3.0 | 4.0 | 0.00 | 0.00 | 0.00 | 21 | 1011.5 |
| 20260508081610 | 73 | 331 | 3.0 | 4.0 | 0.00 | 0.00 | 0.00 | 21 | 1011.4 |
| 20260508081057 | 73 | 321 | 1.0 | 3.0 | 0.00 | 0.00 | 0.00 | 21 | 1011.4 |
| 20260508080557 | 74 | 329 | 1.0 | 3.0 | 0.00 | 0.00 | 0.00 | 20 | 1011.4 |
| 20260508080056 | 74 | 336 | 1.0 | 3.0 | 0.00 | 0.00 | 0.00 | 21 | 1011.5 |
| 20260508075557 | 75 | 333 | 1.0 | 3.0 | 0.00 | 0.00 | 0.00 | 22 | 1011.6 |
| 20260508075057 | 76 | 316 | 0.0 | 3.0 | 0.00 | 0.00 | 0.00 | 23 | 1011.5 |
| 20260508074557 | 76 | 295 | 1.0 | 3.0 | 0.00 | 0.00 | 0.00 | 23 | 1011.5 |
| 20260508074058 | 77 | 302 | 1.0 | 3.0 | 0.00 | 0.00 | 0.00 | 23 | 1011.6 |
| 20260508073559 | 77 | 304 | 1.0 | 3.0 | 0.00 | 0.00 | 0.00 | 23 | 1011.5 |
| 20260508073059 | 76 | 295 | 1.0 | 4.0 | 0.00 | 0.00 | 0.00 | 23 | 1011.5 |
| 20260508072558 | 76 | 302 | 2.0 | 4.0 | 0.00 | 0.00 | 0.00 | 23 | 1011.5 |
| 20260508072058 | 76 | 299 | 1.0 | 2.0 | 0.00 | 0.00 | 0.00 | 23 | 1011.5 |
| 20260508071558 | 75 | 0 | 0.0 | 2.0 | 0.00 | 0.00 | 0.00 | 22 | 1011.4 |
| 20260508071057 | 75 | 321 | 1.0 | 2.0 | 0.00 | 0.00 | 0.00 | 21 | 1011.5 |
| 20260508070602 | 75 | 317 | 0.0 | 2.0 | 0.00 | 0.00 | 0.00 | 21 | 1011.4 |
| 20260508070058 | 76 | 317 | 1.0 | 2.0 | 0.00 | 0.00 | 0.00 | 21 | 1011.5 |
| 20260508065558 | 76 | 317 | 0.0 | 2.0 | 0.00 | 0.00 | 0.00 | 21 | 1011.5 |
| 20260508065059 | 76 | 319 | 1.0 | 2.0 | 0.00 | 0.00 | 0.00 | 21 | 1011.6 |
| 20260508064558 | 76 | 320 | 1.0 | 3.0 | 0.00 | 0.00 | 0.00 | 20 | 1011.6 |
| 20260508064058 | 76 | 322 | 1.0 | 4.0 | 0.00 | 0.00 | 0.00 | 20 | 1011.6 |
| 20260508063559 | 76 | 328 | 2.0 | 4.0 | 0.00 | 0.00 | 0.00 | 19 | 1011.6 |
| 20260508063107 | 76 | 329 | 2.0 | 4.0 | 0.00 | 0.00 | 0.00 | 19 | 1011.5 |
| 20260508062602 | 77 | 326 | 2.0 | 5.0 | 0.00 | 0.00 | 0.00 | 19 | 1011.5 |
| 20260508062058 | 77 | 330 | 3.0 | 5.0 | 0.00 | 0.00 | 0.00 | 19 | 1011.5 |
| 20260508061557 | 77 | 329 | 3.0 | 4.0 | 0.00 | 0.00 | 0.00 | 19 | 1011.3 |
| 20260508061059 | 77 | 326 | 2.0 | 3.0 | 0.00 | 0.00 | 0.00 | 19 | 1011.4 |
| 20260508060558 | 77 | 316 | 3.0 | 3.0 | 0.00 | 0.00 | 0.00 | 19 | 1011.5 |
| 20260508060056 | 77 | 328 | 1.0 | 4.0 | 0.00 | 0.00 | 0.00 | 19 | 1011.4 |
| 20260508055557 | 78 | 330 | 2.0 | 4.0 | 0.00 | 0.00 | 0.00 | 19 | 1011.3 |
| 20260508055059 | 77 | 333 | 2.0 | 4.0 | 0.00 | 0.00 | 0.00 | 19 | 1011.4 |
| 20260508054557 | 77 | 109 | 1.0 | 4.0 | 0.00 | 0.00 | 0.00 | 19 | 1011.5 |
| 20260508054058 | 78 | 321 | 1.0 | 3.0 | 0.00 | 0.00 | 0.00 | 19 | 1011.3 |
| 20260508053558 | 78 | 320 | 2.0 | 3.0 | 0.00 | 0.00 | 0.00 | 19 | 1011.3 |
| 20260508053106 | 79 | 335 | 1.0 | 3.0 | 0.00 | 0.00 | 0.00 | 19 | 1011.3 |
| 20260508052558 | 80 | 339 | 1.0 | 4.0 | 0.00 | 0.00 | 0.00 | 18 | 1011.3 |
| 20260508052101 | 80 | 330 | 2.0 | 4.0 | 0.00 | 0.00 | 0.00 | 18 | 1011.3 |
| 20260508051558 | 81 | 328 | 1.0 | 2.0 | 0.00 | 0.00 | 0.00 | 18 | 1011.2 |
| 20260508051058 | 82 | 0 | 0.0 | 4.0 | 0.00 | 0.00 | 0.00 | 17 | 1011.1 |
| 20260508050559 | 82 | 266 | 1.0 | 4.0 | 0.00 | 0.00 | 0.00 | 18 | 1011.2 |
| 20260508045558 | 83 | 265 | 2.0 | 5.0 | 0.00 | 0.00 | 0.00 | 17 | 1011.1 |
| 20260508045058 | 83 | 249 | 2.0 | 6.0 | 0.00 | 0.00 | 0.00 | 16 | 1011.1 |
| 20260508044558 | 84 | 255 | 3.0 | 6.0 | 0.00 | 0.00 | 0.00 | 17 | 1011.1 |
| 20260508044101 | 84 | 247 | 3.0 | 7.0 | 0.00 | 0.00 | 0.00 | 16 | 1011.0 |
| 20260508043557 | 84 | 274 | 4.0 | 8.0 | 0.00 | 0.00 | 0.00 | 16 | 1011.0 |
| 20260508043104 | 85 | 237 | 4.0 | 8.0 | 0.00 | 0.00 | 0.00 | 16 | 1011.0 |
| 20260508042559 | 85 | 266 | 4.0 | 8.0 | 0.00 | 0.00 | 0.00 | 16 | 1010.9 |
| 20260508042059 | 85 | 250 | 4.0 | 7.0 | 0.00 | 0.00 | 0.00 | 16 | 1010.9 |
| 20260508041601 | 85 | 247 | 4.0 | 7.0 | 0.00 | 0.00 | 0.00 | 16 | 1010.9 |
| 20260508041059 | 86 | 285 | 4.0 | 7.0 | 0.00 | 0.00 | 0.00 | 16 | 1010.8 |
| 20260508040559 | 86 | 262 | 4.0 | 8.0 | 0.00 | 0.00 | 0.00 | 16 | 1010.8 |
| 20260508040056 | 86 | 276 | 5.0 | 8.0 | 0.00 | 0.00 | 0.00 | 16 | 1010.8 |
| 20260508035600 | 86 | 267 | 4.0 | 7.0 | 0.00 | 0.00 | 0.00 | 16 | 1010.8 |
| 20260508035058 | 86 | 234 | 4.0 | 7.0 | 0.00 | 0.00 | 0.00 | 16 | 1010.6 |
| 20260508034612 | 85 | 243 | 3.0 | 6.0 | 0.00 | 0.00 | 0.00 | 16 | 1010.6 |
| 20260508034058 | 85 | 248 | 2.0 | 6.0 | 0.00 | 0.00 | 0.00 | 16 | 1010.6 |
| 20260508033559 | 85 | 235 | 2.0 | 5.0 | 0.00 | 0.00 | 0.00 | 16 | 1010.6 |
| 20260508033058 | 85 | 207 | 2.0 | 5.0 | 0.00 | 0.00 | 0.00 | 17 | 1010.4 |
| 20260508032558 | 85 | 232 | 1.0 | 2.0 | 0.00 | 0.00 | 0.00 | 17 | 1010.4 |
| 20260508032057 | 85 | 217 | 1.0 | 2.0 | 0.00 | 0.00 | 0.00 | 16 | 1010.3 |
| 20260508031557 | 85 | 186 | 1.0 | 4.0 | 0.00 | 0.00 | 0.00 | 16 | 1010.2 |
| 20260508031059 | 86 | 229 | 2.0 | 4.0 | 0.00 | 0.00 | 0.00 | 16 | 1010.2 |
| 20260508030558 | 86 | 224 | 1.0 | 3.0 | 0.00 | 0.00 | 0.00 | 16 | 1010.1 |
| 20260508030059 | 86 | 215 | 1.0 | 4.0 | 0.00 | 0.00 | 0.00 | 16 | 1010.1 |
| 20260508025558 | 87 | 250 | 2.0 | 4.0 | 0.00 | 0.00 | 0.00 | 16 | 1009.9 |
| 20260508025058 | 87 | 196 | 2.0 | 6.0 | 0.00 | 0.00 | 0.00 | 15 | 1009.9 |
| 20260508024558 | 88 | 188 | 4.0 | 8.0 | 0.00 | 0.00 | 0.00 | 15 | 1009.8 |
| 20260508024059 | 88 | 207 | 3.0 | 8.0 | 0.00 | 0.00 | 0.00 | 15 | 1009.7 |
| 20260508023559 | 88 | 244 | 4.0 | 8.0 | 0.00 | 0.00 | 0.00 | 15 | 1009.7 |
| 20260508023059 | 89 | 178 | 4.0 | 9.0 | 0.00 | 0.00 | 0.00 | 15 | 1009.5 |
| 20260508022559 | 89 | 191 | 5.0 | 9.0 | 0.00 | 0.00 | 0.00 | 16 | 1009.5 |
| 20260508022059 | 89 | 165 | 5.0 | 9.0 | 0.00 | 0.00 | 0.00 | 15 | 1009.4 |
| 20260508021601 | 89 | 208 | 5.0 | 8.0 | 0.00 | 0.00 | 0.00 | 15 | 1009.4 |
| 20260508021058 | 90 | 184 | 4.0 | 8.0 | 0.00 | 0.00 | 0.00 | 15 | 1009.4 |
| 20260508020601 | 90 | 293 | 4.0 | 9.0 | 0.00 | 0.00 | 0.00 | 14 | 1009.3 |
| 20260508020106 | 90 | 181 | 5.0 | 9.0 | 0.00 | 0.00 | 0.00 | 14 | 1009.2 |
| 20260508015558 | 91 | 229 | 4.0 | 10.0 | 0.00 | 0.00 | 0.00 | 14 | 1009.2 |
| 20260508015059 | 91 | 186 | 6.0 | 10.0 | 0.00 | 0.00 | 0.00 | 14 | 1009.2 |
| 20260508014601 | 92 | 229 | 5.0 | 9.0 | 0.00 | 0.00 | 0.00 | 14 | 1009.1 |
| 20260508014059 | 93 | 229 | 2.0 | 6.0 | 0.00 | 0.00 | 0.00 | 14 | 1009.1 |
| 20260508013558 | 93 | 238 | 4.0 | 12.0 | 0.00 | 0.00 | 0.00 | 14 | 1009.1 |
| 20260508013102 | 93 | 248 | 4.0 | 12.0 | 0.00 | 0.00 | 0.00 | 14 | 1009.1 |
| 20260508012558 | 93 | 167 | 5.0 | 11.0 | 0.00 | 0.00 | 0.00 | 14 | 1009.0 |
| 20260508012058 | 93 | 233 | 5.0 | 11.0 | 0.00 | 0.00 | 0.00 | 13 | 1009.0 |
| 20260508011604 | 94 | 242 | 6.0 | 12.0 | 0.00 | 0.00 | 0.00 | 13 | 1009.0 |
| 20260508011058 | 94 | 207 | 5.0 | 12.0 | 0.00 | 0.00 | 0.00 | 13 | 1009.0 |
| 20260508010558 | 94 | 207 | 8.0 | 12.0 | 0.00 | 0.00 | 0.00 | 13 | 1008.9 |
| 20260508010058 | 94 | 243 | 5.0 | 11.0 | 0.00 | 0.00 | 0.00 | 13 | 1008.9 |
| 20260508005601 | 94 | 218 | 6.0 | 11.0 | 0.00 | 0.00 | 0.00 | 13 | 1008.9 |
| 20260508005100 | 94 | 194 | 4.0 | 9.0 | 0.00 | 0.00 | 0.00 | 12 | 1008.9 |
| 20260508004600 | 95 | 174 | 6.0 | 10.0 | 0.00 | 0.00 | 0.00 | 13 | 1008.8 |
| 20260508004101 | 95 | 239 | 4.0 | 10.0 | 0.00 | 0.00 | 0.00 | 12 | 1008.9 |
| 20260508003558 | 95 | 257 | 6.0 | 11.0 | 0.00 | 0.00 | 0.00 | 12 | 1008.8 |
| 20260508003102 | 95 | 207 | 2.0 | 11.0 | 0.00 | 0.00 | 0.00 | 12 | 1008.9 |
| 20260508002558 | 95 | 191 | 5.0 | 11.0 | 0.00 | 0.00 | 0.00 | 12 | 1008.9 |
| 20260508002058 | 96 | 223 | 4.0 | 7.0 | 0.00 | 0.00 | 0.00 | 12 | 1008.9 |
| 20260508001629 | 96 | 264 | 2.0 | 8.0 | 0.00 | 0.00 | 0.00 | 12 | 1008.9 |
| 20260508001058 | 96 | 302 | 3.0 | 8.0 | 0.00 | 0.00 | 0.00 | 12 | 1009.0 |
| 20260508000601 | 96 | 244 | 5.0 | 8.0 | 0.00 | 0.00 | 0.00 | 12 | 1009.0 |
| 20260508000100 | 95 | 203 | 4.0 | 8.0 | 0.00 | 0.00 | 0.00 | 12 | 1009.0 |
| 20260507235600 | 96 | 245 | 5.0 | 10.0 | 0.00 | 0.00 | 0.00 | 12 | 1009.0 |
| 20260507235102 | 96 | 255 | 4.0 | 10.0 | 0.00 | 0.00 | 0.00 | 13 | 1009.1 |
| 20260507234600 | 95 | 240 | 6.0 | 10.0 | 0.00 | 0.00 | 0.00 | 12 | 1009.1 |
| 20260507234107 | 96 | 288 | 4.0 | 12.0 | 0.00 | 0.00 | 0.00 | 13 | 1009.2 |
| 20260507233559 | 96 | 269 | 6.0 | 13.0 | 0.00 | 0.00 | 0.00 | 12 | 1009.3 |
| 20260507233059 | 96 | 264 | 5.0 | 13.0 | 0.00 | 0.00 | 0.00 | 12 | 1009.3 |
| 20260507232600 | 96 | 259 | 7.0 | 12.0 | 0.00 | 0.00 | 0.00 | 12 | 1009.3 |
| 20260507232058 | 96 | 287 | 1.0 | 8.0 | 0.00 | 0.00 | 0.00 | 12 | 1009.2 |
| 20260507231601 | 95 | 323 | 4.0 | 12.0 | 0.00 | 0.00 | 0.00 | 13 | 1009.2 |
| 20260507231058 | 96 | 338 | 3.0 | 12.0 | 0.00 | 0.00 | 0.00 | 12 | 1009.2 |
| 20260507230558 | 96 | 233 | 6.0 | 12.0 | 0.00 | 0.00 | 0.00 | 12 | 1009.3 |
| 20260507230059 | 96 | 184 | 6.0 | 11.0 | 0.00 | 0.00 | 0.00 | 12 | 1009.3 |
| 20260507225558 | 96 | 172 | 1.0 | 11.0 | 0.00 | 0.00 | 0.00 | 12 | 1009.4 |
| 20260507225058 | 96 | 279 | 6.0 | 11.0 | 0.00 | 0.00 | 0.00 | 12 | 1009.4 |
| 20260507224603 | 96 | 249 | 5.0 | 10.0 | 0.00 | 0.00 | 0.00 | 12 | 1009.4 |
| 20260507224059 | 95 | 244 | 2.0 | 6.0 | 0.00 | 0.00 | 0.00 | 12 | 1009.5 |
| 20260507223558 | 96 | 276 | 3.0 | 7.0 | 0.00 | 0.00 | 0.00 | 12 | 1009.5 |
| 20260507223058 | 95 | 176 | 3.0 | 8.0 | 0.00 | 0.00 | 0.00 | 12 | 1009.5 |
| 20260507222558 | 96 | 218 | 3.0 | 11.0 | 0.00 | 0.00 | 0.00 | 12 | 1009.7 |
| 20260507222057 | 96 | 260 | 7.0 | 11.0 | 0.00 | 0.00 | 0.00 | 12 | 1009.8 |
| 20260507221559 | 96 | 265 | 4.0 | 8.0 | 0.00 | 0.00 | 0.00 | 12 | 1009.8 |
| 20260507221059 | 96 | 246 | 2.0 | 9.0 | 0.00 | 0.00 | 0.00 | 13 | 1009.9 |
| 20260507220600 | 96 | 259 | 4.0 | 10.0 | 0.00 | 0.00 | 0.00 | 13 | 1010.0 |
| 20260507220100 | 96 | 155 | 3.0 | 10.0 | 0.00 | 0.00 | 0.00 | 13 | 1010.0 |
| 20260507215601 | 96 | 181 | 5.0 | 12.0 | 0.00 | 0.00 | 0.00 | 13 | 1010.1 |
| 20260507215058 | 96 | 117 | 7.0 | 12.0 | 0.00 | 0.00 | 0.00 | 13 | 1010.2 |
| 20260507214601 | 96 | 226 | 4.0 | 13.0 | 0.00 | 0.00 | 0.00 | 12 | 1010.2 |
| 20260507214058 | 95 | 169 | 5.0 | 13.0 | 0.00 | 0.00 | 0.00 | 12 | 1010.3 |
| 20260507213559 | 96 | 241 | 4.0 | 14.0 | 0.00 | 0.00 | 0.00 | 12 | 1010.4 |
| 20260507213057 | 96 | 131 | 2.0 | 14.0 | 0.00 | 0.00 | 0.00 | 13 | 1010.6 |
| 20260507212601 | 96 | 172 | 5.0 | 14.0 | 0.00 | 0.00 | 0.00 | 13 | 1010.7 |
| 20260507212058 | 95 | 122 | 2.0 | 10.0 | 0.00 | 0.00 | 0.00 | 13 | 1010.7 |
| 20260507211558 | 95 | 210 | 5.0 | 10.0 | 0.00 | 0.00 | 0.00 | 13 | 1010.8 |
| 20260507211058 | 95 | 115 | 3.0 | 6.0 | 0.00 | 0.00 | 0.00 | 12 | 1010.9 |
| 20260507210602 | 95 | 122 | 2.0 | 7.0 | 0.00 | 0.00 | 0.00 | 14 | 1010.9 |
| 20260507210059 | 93 | 150 | 3.0 | 7.0 | 0.00 | 0.00 | 0.00 | 12 | 1010.9 |
| 20260507205559 | 94 | 102 | 3.0 | 11.0 | 0.00 | 0.00 | 0.00 | 12 | 1011.0 |
| 20260507205058 | 94 | 180 | 4.0 | 11.0 | 0.00 | 0.00 | 0.00 | 14 | 1011.2 |
| 20260507204600 | 93 | 118 | 2.0 | 10.0 | 0.00 | 0.00 | 0.00 | 14 | 1011.2 |
| 20260507204058 | 94 | 123 | 5.0 | 9.0 | 0.00 | 0.00 | 0.00 | 13 | 1011.4 |
| 20260507203558 | 94 | 105 | 4.0 | 11.0 | 0.00 | 0.00 | 0.00 | 14 | 1011.5 |
| 20260507203101 | 95 | 112 | 6.0 | 11.0 | 0.00 | 0.00 | 0.00 | 13 | 1011.6 |
| 20260507202559 | 94 | 208 | 5.0 | 11.0 | 0.00 | 0.00 | 0.00 | 14 | 1011.5 |
| 20260507202059 | 93 | 219 | 3.0 | 9.0 | 0.00 | 0.00 | 0.00 | 15 | 1011.5 |
| 20260507201600 | 94 | 119 | 4.0 | 9.0 | 0.00 | 0.00 | 0.00 | 14 | 1011.6 |
| 20260507201059 | 93 | 205 | 3.0 | 13.0 | 0.00 | 0.00 | 0.00 | 14 | 1011.7 |
| 20260507200559 | 93 | 300 | 1.0 | 13.0 | 0.00 | 0.00 | 0.00 | 13 | 1011.8 |
| 20260507200109 | 94 | 186 | 4.0 | 13.0 | 0.00 | 0.00 | 0.00 | 14 | 1012.0 |
| 20260507195559 | 94 | 108 | 4.0 | 12.0 | 0.00 | 0.00 | 0.00 | 14 | 1011.8 |
| 20260507195058 | 94 | 155 | 6.0 | 12.0 | 0.00 | 0.00 | 0.00 | 15 | 1011.9 |
| 20260507194557 | 94 | 231 | 4.0 | 12.0 | 0.00 | 0.00 | 0.00 | 14 | 1012.0 |
| 20260507194058 | 93 | 134 | 4.0 | 10.0 | 0.00 | 0.00 | 0.00 | 15 | 1012.1 |
| 20260507193558 | 93 | 128 | 5.0 | 10.0 | 0.00 | 0.00 | 0.00 | 15 | 1012.1 |
| 20260507193059 | 93 | 131 | 5.0 | 9.0 | 0.00 | 0.00 | 0.00 | 16 | 1012.2 |
| 20260507192558 | 93 | 153 | 4.0 | 10.0 | 0.00 | 0.00 | 0.00 | 15 | 1012.2 |
| 20260507192101 | 92 | 149 | 5.0 | 10.0 | 0.00 | 0.00 | 0.00 | 14 | 1012.4 |
| 20260507191600 | 92 | 118 | 5.0 | 10.0 | 0.00 | 0.00 | 0.00 | 14 | 1012.4 |
| 20260507191059 | 93 | 117 | 4.0 | 10.0 | 0.00 | 0.00 | 0.00 | 14 | 1012.5 |
| 20260507190559 | 93 | 277 | 4.0 | 12.0 | 0.00 | 0.00 | 0.00 | 14 | 1012.5 |
| 20260507190059 | 92 | 148 | 3.0 | 12.0 | 0.00 | 0.00 | 0.00 | 15 | 1012.5 |
| 20260507185600 | 91 | 142 | 6.0 | 12.0 | 0.00 | 0.00 | 0.00 | 14 | 1012.7 |
| 20260507185059 | 91 | 125 | 6.0 | 12.0 | 0.00 | 0.00 | 0.00 | 15 | 1012.8 |
| 20260507184606 | 92 | 122 | 5.0 | 11.0 | 0.00 | 0.00 | 0.00 | 15 | 1012.8 |
| 20260507184058 | 91 | 165 | 5.0 | 11.0 | 0.00 | 0.00 | 0.00 | 15 | 1012.9 |
| 20260507183558 | 90 | 142 | 6.0 | 12.0 | 0.00 | 0.00 | 0.00 | 15 | 1013.0 |
| 20260507183057 | 91 | 152 | 6.0 | 12.0 | 0.00 | 0.00 | 0.00 | 14 | 1013.1 |
| 20260507182600 | 92 | 127 | 4.0 | 9.0 | 0.00 | 0.00 | 0.00 | 14 | 1013.2 |
| 20260507182059 | 91 | 127 | 3.0 | 9.0 | 0.00 | 0.00 | 0.00 | 15 | 1013.2 |
| 20260507181605 | 90 | 212 | 4.0 | 10.0 | 0.00 | 0.00 | 0.00 | 15 | 1013.3 |
| 20260507181058 | 89 | 231 | 4.0 | 10.0 | 0.00 | 0.00 | 0.00 | 14 | 1013.3 |
| 20260507180601 | 90 | 128 | 5.0 | 9.0 | 0.00 | 0.00 | 0.00 | 14 | 1013.4 |
| 20260507180059 | 90 | 352 | 2.0 | 7.0 | 0.00 | 0.00 | 0.00 | 14 | 1013.5 |
| 20260507175602 | 90 | 226 | 4.0 | 10.0 | 0.00 | 0.00 | 0.00 | 15 | 1013.5 |
| 20260507175058 | 89 | 131 | 4.0 | 10.0 | 0.00 | 0.00 | 0.00 | 15 | 1013.6 |
| 20260507174609 | 89 | 125 | 5.0 | 10.0 | 0.00 | 0.00 | 0.00 | 14 | 1013.6 |
| 20260507174101 | 90 | 150 | 2.0 | 7.0 | 0.00 | 0.00 | 0.00 | 15 | 1013.6 |
| 20260507173559 | 89 | 152 | 3.0 | 7.0 | 0.00 | 0.00 | 0.00 | 14 | 1013.7 |
| 20260507173100 | 89 | 117 | 2.0 | 9.0 | 0.00 | 0.00 | 0.00 | 14 | 1013.7 |
| 20260507172601 | 89 | 85 | 5.0 | 9.0 | 0.00 | 0.00 | 0.00 | 13 | 1013.8 |
| 20260507172057 | 89 | 64 | 3.0 | 9.0 | 0.00 | 0.00 | 0.00 | 14 | 1013.8 |
| 20260507171605 | 88 | 34 | 3.0 | 9.0 | 0.00 | 0.00 | 0.00 | 14 | 1013.8 |
| 20260507171058 | 88 | 81 | 3.0 | 9.0 | 0.00 | 0.00 | 0.00 | 14 | 1014.0 |
| 20260507170559 | 88 | 72 | 4.0 | 9.0 | 0.00 | 0.00 | 0.00 | 14 | 1013.9 |
| 20260507170059 | 88 | 92 | 2.0 | 8.0 | 0.00 | 0.00 | 0.00 | 14 | 1014.0 |
| 20260507165558 | 88 | 83 | 2.0 | 8.0 | 0.00 | 0.00 | 0.00 | 14 | 1014.1 |
| 20260507165058 | 87 | 33 | 4.0 | 7.0 | 0.00 | 0.00 | 0.00 | 14 | 1014.1 |
| 20260507164600 | 87 | 56 | 3.0 | 7.0 | 0.00 | 0.00 | 0.00 | 14 | 1014.1 |
| 20260507164102 | 87 | 56 | 3.0 | 10.0 | 0.00 | 0.00 | 0.00 | 14 | 1014.2 |
| 20260507163559 | 86 | 98 | 4.0 | 10.0 | 0.00 | 0.00 | 0.00 | 14 | 1014.2 |
| 20260507163100 | 86 | 97 | 3.0 | 8.0 | 0.00 | 0.00 | 0.00 | 15 | 1014.2 |
| 20260507162558 | 86 | 65 | 4.0 | 11.0 | 0.00 | 0.00 | 0.00 | 15 | 1014.2 |
| 20260507162058 | 86 | 47 | 5.0 | 11.0 | 0.00 | 0.00 | 0.00 | 15 | 1014.1 |
| 20260507161601 | 86 | 84 | 5.0 | 9.0 | 0.00 | 0.00 | 0.00 | 15 | 1014.3 |
| 20260507161058 | 85 | 120 | 2.0 | 9.0 | 0.00 | 0.00 | 0.00 | 15 | 1014.4 |
| 20260507160558 | 85 | 122 | 4.0 | 11.0 | 0.00 | 0.00 | 0.00 | 14 | 1014.4 |
| 20260507160100 | 84 | 78 | 3.0 | 11.0 | 0.00 | 0.00 | 0.00 | 15 | 1014.4 |
| 20260507155557 | 84 | 65 | 3.0 | 11.0 | 0.00 | 0.00 | 0.00 | 15 | 1014.5 |
| 20260507155058 | 83 | 65 | 7.0 | 11.0 | 0.00 | 0.00 | 0.00 | 16 | 1014.5 |
| 20260507154605 | 83 | 70 | 6.0 | 10.0 | 0.00 | 0.00 | 0.00 | 16 | 1014.5 |
| 20260507154059 | 83 | 89 | 5.0 | 11.0 | 0.00 | 0.00 | 0.00 | 16 | 1014.6 |
| 20260507153559 | 83 | 44 | 6.0 | 11.0 | 0.00 | 0.00 | 0.00 | 16 | 1014.6 |
| 20260507153102 | 82 | 31 | 5.0 | 11.0 | 0.00 | 0.00 | 0.00 | 16 | 1014.7 |
| 20260507152558 | 82 | 67 | 5.0 | 11.0 | 0.00 | 0.00 | 0.00 | 17 | 1014.6 |
| 20260507152057 | 82 | 83 | 4.0 | 11.0 | 0.00 | 0.00 | 0.00 | 17 | 1014.5 |
| 20260507151559 | 81 | 84 | 5.0 | 11.0 | 0.00 | 0.00 | 0.00 | 18 | 1014.5 |
| 20260507151058 | 81 | 93 | 5.0 | 9.0 | 0.00 | 0.00 | 0.00 | 19 | 1014.5 |
| 20260507150558 | 81 | 342 | 5.0 | 11.0 | 0.00 | 0.00 | 0.00 | 19 | 1014.5 |
| 20260507150058 | 80 | 56 | 6.0 | 12.0 | 0.00 | 0.00 | 0.00 | 20 | 1014.6 |
| 20260507145558 | 80 | 75 | 6.0 | 13.0 | 0.00 | 0.00 | 0.00 | 20 | 1014.7 |
| 20260507145057 | 79 | 60 | 7.0 | 13.0 | 0.00 | 0.00 | 0.00 | 20 | 1014.6 |
| 20260507144557 | 79 | 72 | 5.0 | 12.0 | 0.00 | 0.00 | 0.00 | 21 | 1014.6 |
| 20260507144058 | 78 | 68 | 5.0 | 12.0 | 0.00 | 0.00 | 0.00 | 22 | 1014.6 |
| 20260507143559 | 78 | 60 | 6.0 | 12.0 | 0.00 | 0.00 | 0.00 | 23 | 1014.7 |
| 20260507143058 | 78 | 58 | 0.0 | 2.0 | 0.00 | 0.00 | 0.00 | 26 | 1014.6 |
| 20260507142558 | 76 | 0 | 0.0 | 3.0 | 0.00 | 0.00 | 0.00 | 28 | 1014.6 |
| 20260507142058 | 74 | 57 | 1.0 | 3.0 | 0.00 | 0.00 | 0.00 | 29 | 1014.5 |
| 20260507141559 | 72 | 0 | 0.0 | 0.0 | 0.00 | 0.00 | 0.00 | 32 | 1014.5 |
| 20260507141058 | 70 | 0 | 0.0 | 0.0 | 0.00 | 0.00 | 0.00 | 35 | 1014.6 |
| 20260507140557 | 69 | 0 | 0.0 | 0.0 | 0.00 | 0.00 | 0.00 | 35 | 1014.6 |
| 20260507140104 | 68 | 0 | 0.0 | 0.0 | 0.00 | 0.00 | 0.00 | 36 | 1014.6 |
| 20260507135602 | 67 | 0 | 0.0 | 1.0 | 0.00 | 0.00 | 0.00 | 36 | 1014.6 |
| 20260507135058 | 67 | 0 | 0.0 | 2.0 | 0.00 | 0.00 | 0.00 | 37 | 1014.5 |
| 20260507134600 | 67 | 0 | 0.0 | 2.0 | 0.00 | 0.00 | 0.00 | 37 | 1014.6 |
| 20260507134057 | 66 | 276 | 0.0 | 2.0 | 0.00 | 0.00 | 0.00 | 38 | 1014.4 |
| 20260507133558 | 66 | 0 | 0.0 | 0.0 | 0.00 | 0.00 | 0.00 | 38 | 1014.4 |
| 20260507133101 | 65 | 0 | 0.0 | 0.0 | 0.00 | 0.00 | 0.00 | 38 | 1014.3 |
| 20260507132558 | 65 | 0 | 0.0 | 1.0 | 0.00 | 0.00 | 0.00 | 37 | 1014.3 |
| 20260507132058 | 64 | 0 | 0.0 | 2.0 | 0.00 | 0.00 | 0.00 | 38 | 1014.3 |
| 20260507131602 | 64 | 247 | 1.0 | 2.0 | 0.00 | 0.00 | 0.00 | 38 | 1014.2 |
| 20260507131058 | 64 | 212 | 0.0 | 1.0 | 0.00 | 0.00 | 0.00 | 38 | 1014.1 |
| 20260507130558 | 64 | 255 | 0.0 | 0.0 | 0.00 | 0.00 | 0.00 | 37 | 1014.1 |
| 20260507130110 | 65 | 0 | 0.0 | 0.0 | 0.00 | 0.00 | 0.00 | 35 | 1014.1 |
| 20260507125558 | 66 | 0 | 0.0 | 2.0 | 0.00 | 0.00 | 0.00 | 35 | 1014.1 |
| 20260507125100 | 66 | 0 | 0.0 | 5.0 | 0.00 | 0.00 | 0.00 | 35 | 1013.9 |
| 20260507124558 | 66 | 314 | 1.0 | 5.0 | 0.00 | 0.00 | 0.00 | 35 | 1013.9 |
| 20260507124058 | 65 | 254 | 0.0 | 2.0 | 0.00 | 0.00 | 0.00 | 35 | 1013.8 |
| 20260507123600 | 65 | 0 | 0.0 | 2.0 | 0.00 | 0.00 | 0.00 | 35 | 1013.9 |
| 20260507123100 | 66 | 0 | 0.0 | 4.0 | 0.00 | 0.00 | 0.00 | 35 | 1013.8 |
| 20260507122558 | 68 | 301 | 1.0 | 4.0 | 0.00 | 0.00 | 0.00 | 34 | 1013.9 |
| 20260507122058 | 68 | 3 | 1.0 | 3.0 | 0.00 | 0.00 | 0.00 | 33 | 1013.9 |
| 20260507121606 | 68 | 351 | 0.0 | 4.0 | 0.00 | 0.00 | 0.00 | 33 | 1013.9 |
| 20260507121058 | 69 | 68 | 2.0 | 7.0 | 0.00 | 0.00 | 0.00 | 32 | 1013.9 |
| 20260507120604 | 69 | 118 | 1.0 | 7.0 | 0.00 | 0.00 | 0.00 | 32 | 1013.9 |
| 20260507115558 | 70 | 49 | 1.0 | 8.0 | 0.00 | 0.00 | 0.00 | 32 | 1013.9 |
| 20260507115058 | 70 | 18 | 2.0 | 8.0 | 0.00 | 0.00 | 0.00 | 32 | 1014.0 |
| 20260507114613 | 70 | 68 | 3.0 | 8.0 | 0.00 | 0.00 | 0.00 | 32 | 1014.1 |
| 20260507114100 | 70 | 44 | 4.0 | 8.0 | 0.00 | 0.00 | 0.00 | 32 | 1014.1 |
| 20260507113558 | 70 | 51 | 2.0 | 6.0 | 0.00 | 0.00 | 0.00 | 32 | 1014.2 |
| 20260507113100 | 69 | 68 | 3.0 | 6.0 | 0.00 | 0.00 | 0.00 | 32 | 1014.2 |
| 20260507112602 | 69 | 289 | 2.0 | 6.0 | 0.00 | 0.00 | 0.00 | 33 | 1014.3 |
| 20260507112101 | 68 | 314 | 0.0 | 7.0 | 0.00 | 0.00 | 0.00 | 33 | 1014.3 |
| 20260507111606 | 69 | 315 | 2.0 | 8.0 | 0.00 | 0.00 | 0.00 | 32 | 1014.3 |
| 20260507111058 | 69 | 342 | 2.0 | 8.0 | 0.00 | 0.00 | 0.00 | 34 | 1014.3 |
| 20260507110559 | 68 | 330 | 1.0 | 4.0 | 0.00 | 0.00 | 0.00 | 34 | 1014.4 |
| 20260507110111 | 68 | 319 | 1.0 | 3.0 | 0.00 | 0.00 | 0.00 | 33 | 1014.4 |
| 20260507105558 | 67 | 352 | 1.0 | 3.0 | 0.00 | 0.00 | 0.00 | 33 | 1014.5 |
| 20260507105058 | 67 | 303 | 1.0 | 3.0 | 0.00 | 0.00 | 0.00 | 34 | 1014.4 |
| 20260507104558 | 67 | 316 | 0.0 | 3.0 | 0.00 | 0.00 | 0.00 | 34 | 1014.5 |
| 20260507104057 | 67 | 295 | 0.0 | 4.0 | 0.00 | 0.00 | 0.00 | 34 | 1014.5 |
| 20260507103557 | 67 | 348 | 2.0 | 4.0 | 0.00 | 0.00 | 0.00 | 34 | 1014.5 |
| 20260507103058 | 67 | 309 | 1.0 | 3.0 | 0.00 | 0.00 | 0.00 | 34 | 1014.5 |
| 20260507102558 | 66 | 335 | 0.0 | 1.0 | 0.00 | 0.00 | 0.00 | 35 | 1014.6 |
| 20260507102058 | 65 | 0 | 0.0 | 1.0 | 0.00 | 0.00 | 0.00 | 35 | 1014.6 |
| 20260507101605 | 65 | 335 | 0.0 | 1.0 | 0.00 | 0.00 | 0.00 | 36 | 1014.6 |
| 20260507101058 | 64 | 0 | 0.0 | 1.0 | 0.00 | 0.00 | 0.00 | 36 | 1014.6 |
| 20260507100557 | 64 | 0 | 0.0 | 1.0 | 0.00 | 0.00 | 0.00 | 35 | 1014.6 |
| 20260507100057 | 64 | 1 | 0.0 | 2.0 | 0.00 | 0.00 | 0.00 | 35 | 1014.6 |
| 20260507095558 | 65 | 0 | 0.0 | 2.0 | 0.00 | 0.00 | 0.00 | 35 | 1014.6 |
| 20260507095101 | 65 | 1 | 0.0 | 1.0 | 0.00 | 0.00 | 0.00 | 34 | 1014.6 |
| 20260507094558 | 65 | 0 | 0.0 | 2.0 | 0.00 | 0.00 | 0.00 | 34 | 1014.6 |
| 20260507094058 | 66 | 297 | 0.0 | 4.0 | 0.00 | 0.00 | 0.00 | 33 | 1014.6 |
| 20260507093558 | 66 | 323 | 1.0 | 4.0 | 0.00 | 0.00 | 0.00 | 33 | 1014.6 |
| 20260507093059 | 66 | 349 | 1.0 | 3.0 | 0.00 | 0.00 | 0.00 | 33 | 1014.6 |
| 20260507092601 | 66 | 359 | 2.0 | 3.0 | 0.00 | 0.00 | 0.00 | 33 | 1014.6 |
| 20260507092059 | 66 | 0 | 1.0 | 2.0 | 0.00 | 0.00 | 0.00 | 33 | 1014.6 |
| 20260507091601 | 66 | 323 | 1.0 | 2.0 | 0.00 | 0.00 | 0.00 | 32 | 1014.6 |